Regional Weather Roundup
Issued by NWS

Home | Current Version | Previous Version | Text Only | Print | Product List | Glossary On
Versions: 1 2 3 4 5 6 7 8 9 10 11 12 13 14 15 16 17 18 19 20 21 22 23 24 25 26 27
000
ASUS43 KMPX 140010
RWRMN
WEATHER ROUNDUP FOR MINNESOTA
NATIONAL WEATHER SERVICE TWIN CITIES/CHANHASSEN MN
700 PM CDT SAT AUG 13 2022


NOTE: "FAIR" INDICATES FEW OR NO CLOUDS BELOW 12,000 FEET WITH NO
SIGNIFICANT WEATHER AND/OR OBSTRUCTIONS TO VISIBILITY. N/A MEANS
CURRENT SKY AND/OR WEATHER CONDITIONS ARE NOT AVAILABLE.

MNZ060>063-068>070-140100-
   Twin Cities Metro

CITY           SKY/WX    TMP DP  RH WIND       PRES   REMARKS
TWIN CITIES    CLOUDY    68  57  68 N14G23    30.02S
6HR MIN TEMP:  68; 6HR MAX TEMP:  74;

ST PAUL        CLOUDY    69  59  70 N12       30.02S
CRYSTAL        CLOUDY    68  58  70 N8        30.02S
BLAINE         CLOUDY    68  57  68 N9        30.03S
LAKEVILLE      CLOUDY    68  57  68 N8        30.02S
EDEN PRAIRIE   CLOUDY    68  58  70 N12       30.01S
6HR MIN TEMP:  68; 6HR MAX TEMP:  73;

SOUTH ST PAUL  CLOUDY    68  58  70 N9        30.01S
LAKE ELMO      CLOUDY    64  57  77 N9        30.03S
$$
MNZ001>005-007-008-013>017-022>024-027-028-140100-
   Northwest Minnesota

CITY           SKY/WX    TMP DP  RH WIND       PRES   REMARKS
BEMIDJI        SUNNY     74  57  55 CALM      30.05S
HALLOCK        SUNNY     79  64  61 S6        30.02F
ROSEAU           N/A     79  63  57 SW6       30.04S
WARROAD        SUNNY     79  64  61 S3        30.04S
THIEF RVR FALL SUNNY     74  59  59 SE5       30.06F
CROOKSTON      SUNNY     79  57  47 SE5       30.04S
FOSSTON        SUNNY     73  57  56 CALM      30.05S
DETROIT LAKES  MOSUNNY   73  59  60 CALM      30.06S
MOORHEAD       MOSUNNY   73  63  68 CALM      30.04F
PARK RAPIDS      N/A    N/A N/A N/A MISG      30.05F
MAHNOMEN       FAIR      74  62  65 CALM      30.05S
$$
MNZ006-009>011-018-025>026-140100-
   North Central Minnesota

CITY           SKY/WX    TMP DP  RH WIND       PRES   REMARKS
BAUDETTE       SUNNY     78  59  51 SW5       30.04S
INTL FALLS     SUNNY     76  58  53 SE3       30.03S
6HR MIN TEMP:  71; 6HR MAX TEMP:  78;

WASKISH        SUNNY     75  63  64 W5        30.04S
BIG FORK       SUNNY     75  57  53 NE3       30.09S
LONGVILLE      SUNNY     72  57  60 CALM      30.05S
GRAND RAPIDS   MOSUNNY   68  64  87 CALM      30.06F
CRANE LAKE     MOSUNNY   75  55  50 CALM      30.05S
ORR            SUNNY     73  59  60 W3        30.02F
COOK           SUNNY     73  57  56 W3        30.03F
WALKER         CLEAR     71  58  64 CALM      30.05F
$$
MNZ012-019>021-037-140100-
   Northeast Minnesota

CITY           SKY/WX    TMP DP  RH WIND       PRES   REMARKS
DULUTH         MOSUNNY   61  55  81 E9        30.06S
6HR MIN TEMP:  61; 6HR MAX TEMP:  64;

ELY            MOSUNNY   70  57  64 S7        30.05R
HIBBING        MOSUNNY   71  59  65 S6        30.04F
EVELETH        MOSUNNY   68  61  77 SE7       30.06F
DULUTH HARBOR  MOSUNNY   59  57  94 NE8       30.06S
TWO HARBORS    MOSUNNY   63  55  77 E5        30.06S
GRAND MARAIS     N/A     61  56  83 E5        30.05F
G MARAIS ARPRT MOSUNNY   61  57  88 CALM      30.07S
$$
MNZ029>031-032-039>041-046>048-054>057-064-140100-
   West Central Minnesota

CITY           SKY/WX    TMP DP  RH WIND       PRES   REMARKS
FERGUS FALLS   MOSUNNY   75  63  64 E3        30.02S
WHEATON          N/A     75  61  60 NE6       30.04F
MORRIS         SUNNY     72  59  64 NE8       30.04F
ALEXANDRIA     PTSUNNY   72  58  61 E5        30.06F
ELBOW LAKE     PTSUNNY   71  62  72 NE3       30.05F
WADENA         MOSUNNY   73  59  60 E5        30.05F
GLENWOOD       SUNNY     70  61  73 CALM      30.07S
APPLETON       MOSUNNY   75  61  60 E8        30.03F
BENSON         MOSUNNY   72  61  68 E8        30.05F
ORTONVILLE       N/A     73  64  73 E8        30.03F
MADISON        SUNNY     75  64  69 E8        30.05S
WILLMAR        CLOUDY    72  61  68 NE7       30.08S
$$
MNZ033>034-036-042>043-049>051-058-059-140100-
   Central Minnesota

CITY           SKY/WX    TMP DP  RH WIND       PRES   REMARKS
ST CLOUD       CLOUDY    68  60  75 N5        30.04S
6HR MIN TEMP:  68; 6HR MAX TEMP:  71;

SAUK CENTRE    CLOUDY    68  59  73 CALM      30.05F
PAYNESVILLE    CLOUDY    68  59  73 NE5       30.06S
AITKIN         MOSUNNY   68  59  73 CALM      30.06S
PINE RIVER     MOSUNNY   72  59  64 CALM      30.09F
BRAINERD       MOSUNNY   69  60  73 CALM      30.06F
STAPLES        SUNNY     72  57  60 E5        30.07S
LONG PRAIRIE   PTSUNNY   68  59  73 E6        30.07S
LITTLE FALLS   CLOUDY    66  59  77 CALM      30.07R
CAMP RIPLEY    CLOUDY    68  60  75 N5        30.05S
LITCHFIELD     CLOUDY    70  61  73 N7        30.05F
HUTCHINSON     CLOUDY    69  61  75 N6        30.05F
$$
MNZ037-044-045-052-053-140100-
   East Central Minnesota

CITY           SKY/WX    TMP DP  RH WIND       PRES   REMARKS
PRINCETON      CLOUDY    68  57  68 NE7       30.04S
MORA           MOSUNNY   64  57  77 NE3       30.06F
CAMBRIDGE      CLOUDY    68  55  64 NE8       30.04S
RUSH CITY      CLOUDY    64  56  75 NE8       30.04F
MOOSE LAKE     CLOUDY    63  55  77 NE6       30.07S
HINCKLEY       MOCLDY    66  57  72 NE9       30.05S
MCGREGOR       MOSUNNY   68  59  73 SE3       30.06F
$$
MNZ071>073-080-081-089-090-097-098-140100-
   Southwest Minnesota

CITY           SKY/WX    TMP DP  RH WIND       PRES   REMARKS
MONTEVIDEO     SUNNY     72  63  73 E8        30.04F
GRANITE FALLS  MOSUNNY   74  63  68 NE8       30.05F
CANBY          SUNNY     75  64  67 NE7       30.05S
MARSHALL       SUNNY     73  63  70 NE12      30.04F
REDWOOD FALLS  CLOUDY    71  62  73 N5        30.04S
OLIVIA         CLOUDY    68  61  77 NE5       30.04S
WINDOM         MOSUNNY   70  61  73 N10       30.04S
WORTHINGTON    PTSUNNY   73  65  75 NE10      30.05F
JACKSON        CLOUDY    70  61  73 VRB6      30.05S
TRACY          MOSUNNY   73  60  63 NE12      30.05F
SLAYTON        PTSUNNY   71  64  76 NE9       30.06S
$$
MNZ065>067-074>077-082>085-091>093-140100-
   South Central Minnesota

CITY           SKY/WX    TMP DP  RH WIND       PRES   REMARKS
MANKATO        CLOUDY    68  61  78 N10       30.03R
NEW ULM        CLOUDY    70  61  73 N3        30.03F
ST JAMES       CLOUDY    70  63  78 N9        30.03S
FAIRMONT       CLOUDY    70  63  78 N6        30.03S
GLENCOE        CLOUDY    67  60  77 N5        30.03S
FARIBAULT      CLOUDY    68  61  77 N5        30.02R
OWATONNA       CLOUDY    68  61  77 N6        30.01S
WASECA         CLOUDY    68  61  77 N7        30.03R
ALBERT LEA     CLOUDY    68  63  83 N6        30.01S
$$
MNZ078>079-086>088-094>096-140100-
   Southeast Minnesota

CITY           SKY/WX    TMP DP  RH WIND       PRES   REMARKS
ROCHESTER      CLOUDY    65  61  87 N13       30.00S
6HR MIN TEMP:  65; 6HR MAX TEMP:  68;

RED WING       CLOUDY    68  59  73 N6        29.99R
STANTON        CLOUDY    68  60  75 N8        30.00S
DODGE CENTER   CLOUDY    64  61  88 N12       30.01S
WINONA         CLOUDY    68  63  83 N5        29.97S
AUSTIN         CLOUDY    68  63  83 N7        30.01R
PRESTON        CLOUDY    66  62  87 N7        30.00R
$$
ABBREVIATIONS USED IN REMARKS
   TC - TEMPERATURES IN CELSIUS
  WCI - WIND CHILL INDEX
   HX - HEAT INDEX
  VSB - VISIBILITY
$$



USA.gov is the U.S. government's official web portal to all federal, state and local government web resources and services.